Location: Newark
(47.3150°N, 5.1150°E)
Time: 05:46:26
(UTC+00:00)

DX 1 - Visible Passes

Search period start: 15 December 2019 00:00
Search period end: 25 December 2019 00:00
Orbit: 619 x 631 km, 98.4° (Epoch: 14 December)

Date Brightness Start Highest point End Pass type
(mag) Time Alt. Az. Time Alt. Az. Time Alt. Az.
15 Dec ? 17:31:20 10° N 17:35:18 34° WNW 17:39:15 10° SW visible
16 Dec ? 17:50:29 10° N 17:53:58 24° WNW 17:57:28 10° WSW visible
17 Dec ? 16:32:33 10° NNE 16:36:55 63° ESE 16:41:15 10° S visible
17 Dec ? 18:09:50 10° NNW 18:12:37 17° WNW 18:15:23 10° W visible
18 Dec ? 16:51:21 10° NNE 16:55:45 85° WNW 17:00:08 10° SSW visible
18 Dec ? 18:29:39 10° NW 18:31:12 12° NW 18:32:44 10° WNW visible
19 Dec ? 17:10:15 10° N 17:14:32 56° WNW 17:18:49 10° SSW visible
20 Dec ? 17:29:15 10° N 17:33:17 37° WNW 17:37:18 10° SW visible
21 Dec ? 17:48:22 10° N 17:51:58 25° WNW 17:55:33 10° WSW visible
22 Dec ? 16:30:32 10° NNE 16:34:52 58° ESE 16:39:11 10° S visible
22 Dec ? 18:07:40 10° NNW 18:10:37 18° WNW 18:13:33 10° WSW visible
23 Dec ? 16:49:18 10° NNE 16:53:43 89° E 16:58:06 10° SSW visible
23 Dec ? 18:27:21 10° NNW 18:29:12 13° WNW 18:31:03 10° W visible
24 Dec ? 17:08:10 10° N 17:12:31 60° WNW 17:16:49 10° SSW visible
